Home > Time Zones > World Clock > Weather > Spain > Ceuta > Past weeks

Flag for Spain Weather past 2 weeks in Ceuta, Ceuta, Spain

Now
59 °F

Clear.


Feels Like: 58 °F
Forecast: 55 / 62 °F
Wind: 6 mph from Southwest

Location: Gibraltar Airport

Current Time: Dec 26, 2014 at 8:26:43 PM

Latest Report: Dec 26, 2014 at 7:50 PM


Visibility: 10 mi

Pressure: 30.42 "Hg

Humidity: 68%

Dew point: 48 °F

Location of CeutaLocation

Historic Weather in Ceuta — Graph

°F

Ceuta temperature yesterday

Maximum temperature yesterday: 64 °F (at 1:50 PM)
Minimum temperature yesterday: 52 °F (at 5:50 AM)
Average temperature yesterday: 57 °F

Past Weeks' High & Low Weather Summary

 TemperatureHumidityPressure
High68 °F (Dec 13, 12:50 PM)100% (Dec 24, 9:50 PM)30.48 "Hg (Dec 24, 9:50 PM)
Low48 °F (Dec 26, 4:50 AM)35% (Dec 13, 3:50 PM)29.83 "Hg (Dec 14, 3:50 PM)
Average58 °F77%30.26 "Hg
* Reported Dec 11 6:50 PM — Dec 26 6:50 PM, Ceuta, Weather by CustomWeather, © 2014

Note: Actual official high and low records may vary slightly from our data, if they occured in-between our weather recording intervals... More about our weather records

Advertising

Ceuta weather history for previous 24 hours

 ConditionsComfort  
Time TempWeatherWind HumidityBarometerVisibility
6:50 PM
Dec 26
59 °FClear.9 mph63%30.42 "Hg10 mi
5:50 PM61 °FPassing clouds.10 mph63%30.39 "HgN/A
4:50 PM63 °FPassing clouds.7 mph59%30.39 "HgN/A
3:50 PM63 °FPassing clouds.7 mph59%30.39 "HgN/A
2:50 PM61 °FPassing clouds.10 mph63%30.42 "HgN/A
1:50 PM63 °FPassing clouds.6 mph45%30.42 "HgN/A
12:50 PM59 °FPassing clouds.3 mph77%30.45 "HgN/A
11:50 AM59 °FPassing clouds.3 mph72%30.48 "HgN/A
10:50 AM54 °FPassing clouds.6 mph82%30.45 "HgN/A
9:50 AM52 °FPassing clouds.6 mph82%30.45 "HgN/A
8:50 AM50 °FPassing clouds.6 mph88%30.45 "HgN/A
7:50 AM48 °FPassing clouds.6 mph94%30.42 "HgN/A
6:50 AM48 °FPassing clouds.6 mph94%30.42 "HgN/A
5:50 AM48 °FClear.7 mph94%30.42 "HgN/A
4:50 AM48 °FClear.7 mph94%30.42 "HgN/A
3:50 AM50 °FClear.7 mph88%30.42 "HgN/A
2:50 AM52 °FClear.6 mph82%30.42 "HgN/A
1:50 AM54 °FClear.7 mph77%30.42 "HgN/A
12:50 AM52 °FClear.6 mph82%30.45 "HgN/A
11:50 PM
Dec 25
54 °FClear.5 mph77%30.45 "HgN/A
10:50 PM55 °FClear.5 mph77%30.42 "HgN/A
9:50 PM57 °FClear.8 mph72%30.42 "HgN/A
8:50 PM57 °FClear.6 mph72%30.42 "HgN/A
Weather by CustomWeather, © 2014

See weather overviewHow to use our weather pages